Home   Weather   Molepolole   Past weeks

Flag for Botswana Past Weather in Molepolole, Botswana — Yesterday and Last 2 Weeks

Now
82 °F

Passing clouds.


Feels Like: 81 °F
Forecast: 60 / 84 °F
Wind: 8 mph from Northeast

Location: Seretse Khama International Airport

Current Time: Oct 1, 2016 at 12:37:46 PM

Latest Report: Oct 1, 2016 at 11:00 AM


Visibility: N/A

Pressure: 29.98 "Hg (26.33 "Hg at 1145m altitude)

Humidity: 28%

Dew Point: 46 °F

Location of MolepololeLocation

Past Weather in Molepolole — Graph

°F

Molepolole Temperature Yesterday

Maximum temperature yesterday: 91 °F (at 5:00 PM)
Minimum temperature yesterday: 61 °F (at 5:00 AM)
Average temperature yesterday: 77 °F

High & Low Weather Summary for the Past Weeks

 TemperatureHumidityPressure
High95 °F (Sep 22, 3:00 PM)94% (Sep 20, 5:00 AM)30.39 "Hg (Sep 20, 5:00 AM)
Low48 °F (Sep 29, 6:00 AM)4% (Sep 24, 6:00 PM)29.89 "Hg (Sep 16, 4:00 PM)
Average73 °F29%30.10 "Hg
* Reported Sep 16 11:00 AM — Oct 1 11:00 AM, Molepolole, Weather by CustomWeather, © 2016

Note: Actual official high and low records may vary slightly from our data, if they occured in-between our weather recording intervals... More about our weather records

Advertising

Molepolole Weather History for the Previous 24 Hours

Scroll right to see more
 ConditionsComfort  
Time TempWeatherWind HumidityBarometerVisibility
11:00 AM
Sat, Oct 1
82 °FPassing clouds.8 mph28%29.98 "HgN/A
10:00 AM81 °FScattered clouds.3 mph28%30.01 "HgN/A
9:00 AM77 °FPassing clouds.3 mph36%30.01 "HgN/A
8:00 AM72 °FSunny.5 mph33%30.04 "Hg10 mi
7:00 AM66 °FSunny.8 mph40%29.98 "Hg10 mi
5:00 AM66 °FThunderstorms. Passing clouds.5 mph46%29.98 "HgN/A
2:00 AM66 °FPassing clouds.6 mph46%29.98 "HgN/A
11:00 PM
Fri, Sep 30
79 °FClear.12 mph9%30.01 "Hg10 mi
10:00 PM79 °FClear.12 mph9%30.01 "Hg10 mi
9:00 PM81 °FClear.9 mph11%30.01 "Hg10 mi
8:00 PM82 °FClear.8 mph10%29.98 "Hg10 mi
7:00 PM84 °FPassing clouds.8 mph11%29.95 "HgN/A
6:00 PM90 °FScattered clouds.12 mph9%29.95 "HgN/A
5:00 PM91 °FScattered clouds.9 mph10%29.95 "HgN/A
4:00 PM90 °FScattered clouds.2 mph17%29.95 "HgN/A
3:00 PM90 °FPassing clouds.3 mph18%29.98 "HgN/A
2:00 PM88 °FPassing clouds.6 mph21%30.01 "HgN/A
1:00 PM84 °FSunny.6 mph33%30.07 "Hg10 mi
12:00 PM81 °FPassing clouds.8 mph39%30.09 "HgN/A
Weather by CustomWeather, © 2016

See weather overviewHow to use our weather pages